Powrót do katalogu

ARIANE 44L DEB

AktywnyHEO
NORAD 24751·DEBRIS·🇫🇷 France

Wystrzelony Jan 15, 1991 z Guiana Space Centre

Loading…

Następne Przeloty (najbliższe 24 godziny)

TLE

ŚwieżeSource: Space-Track

Epoka: Sep 12, 2026, 23:36 UTC

1 24751U 91003K   26255.98353742  .00000011  00000-0  22429-3 0  9997
2 24751   7.8947 119.8251 6164265 281.7465  19.0335  3.61363228358108

Śledź ARIANE 44L DEB w czasie rzeczywistym z AllMySat

Download on the App Store